,,PA_Meas_PMT16A,,PR_Meas_QMR101_102,,RH_Meas_QMH101,,SR_Meas_QMS101,,TA_Meas_QMH101,,GenWind,,GenWind,
time,status,PA,status,PR,status,RH,status,SR,status,TA,status,DirAvg,status,SpdAvg,
2012-02-22, 00:00:04,VALID,915.772,VALID,0,VALID,95.1097,VALID,0,VALID,20.5773,VALID,344,VALID,0.965625,
2012-02-22, 00:01:04,VALID,915.781,VALID,0,VALID,95.2546,VALID,0,VALID,20.5984,VALID,269,VALID,1.15195,
2012-02-22, 00:02:04,VALID,915.762,VALID,0,VALID,95.3308,VALID,0,VALID,20.5578,VALID,184,VALID,0.425781,
2012-02-22, 00:03:04,VALID,915.751,VALID,0,VALID,95.3689,VALID,0,VALID,20.5399,VALID,184,VALID,0.578516,
2012-02-22, 00:04:04,VALID,915.714,VALID,0,VALID,95.4375,VALID,0,VALID,20.5594,VALID,184,VALID,0.827734,
2012-02-22, 00:05:04,VALID,915.701,VALID,0,VALID,95.5519,VALID,0,VALID,20.5399,VALID,139,VALID,0.921094,
2012-02-22, 00:06:04,VALID,915.693,VALID,0,VALID,95.7654,VALID,0,VALID,20.5773,VALID,139,VALID,0.950781,
2012-02-22, 00:07:04,VALID,915.682,VALID,0,VALID,95.8721,VALID,0,VALID,20.5984,VALID,139,VALID,0.514844,
2012-02-22, 00:08:04,VALID,915.668,VALID,0,VALID,95.9407,VALID,0.107441,VALID,20.5773,VALID,139,VALID,0.803125,
2012-02-22, 00:09:04,VALID,915.667,VALID,0,VALID,96.055,VALID,0,VALID,20.6374,VALID,139,VALID,0.610156,
2012-02-22, 00:10:04,VALID,915.625,VALID,0,VALID,96.1236,VALID,0,VALID,20.6163,VALID,139,VALID,0.499219,
2012-02-22, 00:11:04,VALID,915.627,VALID,0,VALID,96.1618,VALID,0,VALID,20.6374,VALID,139,VALID,0.480078,
2012-02-22, 00:12:04,VALID,915.586,VALID,0,VALID,96.1694,VALID,0.107441,VALID,20.6374,VALID,139,VALID,0.599219,
2012-02-22, 00:13:04,VALID,915.58,VALID,0,VALID,96.177,VALID,0,VALID,20.5773,VALID,139,VALID,0.604688,
2012-02-22, 00:14:04,VALID,915.562,VALID,0,VALID,96.2304,VALID,0,VALID,20.5789,VALID,139,VALID,0.536719,
2012-02-22, 00:15:04,VALID,915.557,VALID,0,VALID,96.2609,VALID,0,VALID,20.5594,VALID,139,VALID,0.619922,
2012-02-22, 00:16:04,VALID,915.559,VALID,0,VALID,96.3066,VALID,0,VALID,20.5594,VALID,139,VALID,0.836328,
2012-02-22, 00:17:04,VALID,915.533,VALID,0,VALID,96.3752,VALID,0,VALID,20.5594,VALID,139,VALID,0.751172,
2012-02-22, 00:18:04,VALID,915.531,VALID,0,VALID,96.4362,VALID,0,VALID,20.5789,VALID,139,VALID,0.223828,
2012-02-22, 00:19:04,VALID,915.554,VALID,0,VALID,96.4667,VALID,0,VALID,20.5984,VALID,139,VALID,0.282813,
2012-02-22, 00:20:04,VALID,915.529,VALID,0,VALID,96.4972,VALID,0,VALID,20.5968,VALID,139,VALID,0.242969,
2012-02-22, 00:21:04,VALID,915.514,VALID,0,VALID,96.5048,VALID,0,VALID,20.6179,VALID,139,VALID,0.226172,
2012-02-22, 00:22:04,VALID,915.501,VALID,0,VALID,96.5277,VALID,0,VALID,20.6179,VALID,139,VALID,0.623438,
2012-02-22, 00:23:04,VALID,915.449,VALID,0,VALID,96.5124,VALID,0.107441,VALID,20.5789,VALID,139,VALID,0.0871094,
2012-02-22, 00:24:04,VALID,915.42,VALID,0,VALID,96.5506,VALID,0,VALID,20.5789,VALID,139,VALID,0.230859,
2012-02-22, 00:25:04,VALID,915.388,VALID,0,VALID,96.5658,VALID,0,VALID,20.5773,VALID,139,VALID,0.519922,
2012-02-22, 00:26:04,VALID,915.351,VALID,0,VALID,96.6268,VALID,0,VALID,20.6179,VALID,139,VALID,0.471094,
2012-02-22, 00:27:04,VALID,915.289,VALID,0,VALID,96.6039,VALID,0,VALID,20.5968,VALID,139,VALID,0.517578,
2012-02-22, 00:28:04,VALID,915.261,VALID,0,VALID,96.5963,VALID,0,VALID,20.5804,VALID,139,VALID,0.480859,
2012-02-22, 00:29:04,VALID,915.272,VALID,0,VALID,96.6115,VALID,0,VALID,20.5804,VALID,139,VALID,0.00078125,
2012-02-22, 00:30:04,VALID,915.252,VALID,0,VALID,96.5734,VALID,0,VALID,20.5414,VALID,139,VALID,0.291797,
2012-02-22, 00:31:04,VALID,915.255,VALID,0,VALID,96.5429,VALID,0,VALID,20.4829,VALID,139,VALID,0.742969,
2012-02-22, 00:32:04,VALID,915.266,VALID,0,VALID,96.5506,VALID,0,VALID,20.4228,VALID,139,VALID,0.834375,
2012-02-22, 00:33:04,VALID,915.253,VALID,0,VALID,96.5658,VALID,0,VALID,20.4049,VALID,139,VALID,0.723828,
2012-02-22, 00:34:04,VALID,915.247,VALID,0,VALID,96.642,VALID,0,VALID,20.4049,VALID,171,VALID,0.975781,
2012-02-22, 00:35:04,VALID,915.253,VALID,0,VALID,96.7107,VALID,0,VALID,20.4049,VALID,171,VALID,0.439063,
2012-02-22, 00:36:04,VALID,915.25,VALID,0,VALID,96.7259,VALID,0,VALID,20.4439,VALID,171,VALID,0.691797,
2012-02-22, 00:37:04,VALID,915.235,VALID,0,VALID,96.7488,VALID,0,VALID,20.4634,VALID,171,VALID,0.772656,
2012-02-22, 00:38:04,VALID,915.211,VALID,0,VALID,96.6954,VALID,0,VALID,20.4439,VALID,171,VALID,0.383594,
2012-02-22, 00:39:04,VALID,915.229,VALID,0,VALID,96.6573,VALID,0,VALID,20.4244,VALID,171,VALID,0,
2012-02-22, 00:40:04,VALID,915.262,VALID,0,VALID,96.5429,VALID,0,VALID,20.3659,VALID,171,VALID,0.00546875,
2012-02-22, 00:41:04,VALID,915.265,VALID,0,VALID,96.5048,VALID,0,VALID,20.3479,VALID,171,VALID,0.58125,
2012-02-22, 00:42:04,VALID,915.255,VALID,0,VALID,96.5353,VALID,0,VALID,20.3074,VALID,171,VALID,0.763672,
2012-02-22, 00:43:04,VALID,915.271,VALID,0,VALID,96.4591,VALID,0,VALID,20.2458,VALID,171,VALID,0.746875,
2012-02-22, 00:44:04,VALID,915.273,VALID,0,VALID,96.5048,VALID,0,VALID,20.2083,VALID,171,VALID,0.750391,
2012-02-22, 00:45:04,VALID,915.272,VALID,0,VALID,96.5277,VALID,0,VALID,20.1888,VALID,171,VALID,0.914063,
2012-02-22, 00:46:04,VALID,915.271,VALID,0,VALID,96.5201,VALID,0,VALID,20.1693,VALID,171,VALID,0.86875,
2012-02-22, 00:47:04,VALID,915.259,VALID,0,VALID,96.4972,VALID,0,VALID,20.0898,VALID,171,VALID,0.767969,
2012-02-22, 00:48:04,VALID,915.282,VALID,0,VALID,96.4438,VALID,0,VALID,20.0523,VALID,129,VALID,0.755469,
2012-02-22, 00:49:04,VALID,915.303,VALID,0,VALID,96.6878,VALID,0,VALID,20.0718,VALID,129,VALID,0.608984,
2012-02-22, 00:50:04,VALID,915.272,VALID,0,VALID,96.764,VALID,0,VALID,20.1108,VALID,129,VALID,0.541797,
2012-02-22, 00:51:04,VALID,915.304,VALID,0,VALID,96.7259,VALID,0,VALID,20.1108,VALID,129,VALID,0.428516,
2012-02-22, 00:52:04,VALID,915.296,VALID,0,VALID,96.8098,VALID,0,VALID,20.1303,VALID,129,VALID,0.556641,
2012-02-22, 00:53:04,VALID,915.29,VALID,0,VALID,96.8936,VALID,0,VALID,20.1888,VALID,129,VALID,0.357031,
2012-02-22, 00:54:04,VALID,915.3,VALID,0,VALID,96.9394,VALID,0,VALID,20.2473,VALID,129,VALID,0.457031,
2012-02-22, 00:55:04,VALID,915.285,VALID,0,VALID,96.9546,VALID,0,VALID,20.3058,VALID,129,VALID,0.304297,
2012-02-22, 00:56:04,VALID,915.319,VALID,0,VALID,96.8936,VALID,0,VALID,20.3058,VALID,129,VALID,0.256641,
2012-02-22, 00:57:04,VALID,915.299,VALID,0,VALID,96.947,VALID,0,VALID,20.3448,VALID,129,VALID,0.226953,
2012-02-22, 00:58:04,VALID,915.282,VALID,0,VALID,96.947,VALID,0,VALID,20.4049,VALID,129,VALID,0.01875,
2012-02-22, 00:59:04,VALID,915.277,VALID,0,VALID,96.9775,VALID,0,VALID,20.4228,VALID,129,VALID,0,
2012-02-22, 01:00:04,VALID,915.26,VALID,0,VALID,96.9851,VALID,0,VALID,20.4813,VALID,129,VALID,0,
2012-02-22, 01:01:04,VALID,915.267,VALID,0,VALID,96.9394,VALID,0,VALID,20.5009,VALID,129,VALID,0.423828,
2012-02-22, 01:02:04,VALID,915.272,VALID,0,VALID,96.9089,VALID,0,VALID,20.5009,VALID,129,VALID,0.370703,
2012-02-22, 01:03:04,VALID,915.235,VALID,0,VALID,96.8631,VALID,0,VALID,20.4813,VALID,129,VALID,0.476953,
2012-02-22, 01:04:04,VALID,915.235,VALID,0,VALID,96.8479,VALID,0,VALID,20.4813,VALID,129,VALID,0.298438,
2012-02-22, 01:05:04,VALID,915.244,VALID,0,VALID,96.8631,VALID,0,VALID,20.4813,VALID,129,VALID,0.390234,
2012-02-22, 01:06:04,VALID,915.217,VALID,0,VALID,96.8555,VALID,0,VALID,20.4813,VALID,129,VALID,0.244922,
2012-02-22, 01:07:04,VALID,915.199,VALID,0,VALID,96.8631,VALID,0,VALID,20.5204,VALID,129,VALID,0.0304688,
2012-02-22, 01:08:04,VALID,915.175,VALID,0,VALID,96.8784,VALID,0,VALID,20.5414,VALID,129,VALID,0,
2012-02-22, 01:09:04,VALID,915.161,VALID,0,VALID,96.8936,VALID,0,VALID,20.5594,VALID,129,VALID,0,
2012-02-22, 01:10:04,VALID,915.167,VALID,0,VALID,96.886,VALID,0,VALID,20.5984,VALID,129,VALID,0,
2012-02-22, 01:11:04,VALID,915.124,VALID,0,VALID,96.8479,VALID,0,VALID,20.5984,VALID,129,VALID,0,
2012-02-22, 01:12:04,VALID,915.094,VALID,0,VALID,96.8174,VALID,0,VALID,20.5984,VALID,129,VALID,0,
2012-02-22, 01:13:04,VALID,915.104,VALID,0,VALID,96.703,VALID,0,VALID,20.5399,VALID,129,VALID,0.385938,
2012-02-22, 01:14:04,VALID,915.095,VALID,0,VALID,96.6649,VALID,0,VALID,20.4993,VALID,129,VALID,0.585547,
2012-02-22, 01:15:04,VALID,915.087,VALID,0,VALID,96.6649,VALID,0,VALID,20.4813,VALID,129,VALID,0.635156,
2012-02-22, 01:16:04,VALID,915.063,VALID,0,VALID,96.6573,VALID,0,VALID,20.4813,VALID,129,VALID,0.465625,
2012-02-22, 01:17:04,VALID,915.084,VALID,0,VALID,96.6954,VALID,0,VALID,20.4618,VALID,129,VALID,0.334375,
2012-02-22, 01:18:04,VALID,915.048,VALID,0,VALID,96.6344,VALID,0,VALID,20.4423,VALID,129,VALID,0.3875,
2012-02-22, 01:19:04,VALID,915.028,VALID,0,VALID,96.5887,VALID,0,VALID,20.3823,VALID,129,VALID,0.428125,
2012-02-22, 01:20:04,VALID,915.045,VALID,0,VALID,96.5277,VALID,0,VALID,20.3643,VALID,129,VALID,0.676172,
2012-02-22, 01:21:04,VALID,915.028,VALID,0,VALID,96.3524,VALID,0,VALID,20.2668,VALID,129,VALID,1.21953,
2012-02-22, 01:22:04,VALID,915.014,VALID,0,VALID,96.4591,VALID,0,VALID,20.2278,VALID,129,VALID,1.23203,
2012-02-22, 01:23:04,VALID,915.013,VALID,0,VALID,96.642,VALID,0,VALID,20.2473,VALID,129,VALID,1.24609,
2012-02-22, 01:24:04,VALID,914.981,VALID,0,VALID,96.6878,VALID,0,VALID,20.2278,VALID,129,VALID,1.05625,
2012-02-22, 01:25:04,VALID,914.964,VALID,0,VALID,96.703,VALID,0,VALID,20.2083,VALID,129,VALID,1.33086,
2012-02-22, 01:26:04,VALID,914.935,VALID,0,VALID,96.7564,VALID,0,VALID,20.2083,VALID,129,VALID,0.961328,
2012-02-22, 01:27:04,VALID,914.921,VALID,0,VALID,96.8021,VALID,0,VALID,20.2083,VALID,129,VALID,0.940625,
2012-02-22, 01:28:04,VALID,914.881,VALID,0,VALID,96.8098,VALID,0,VALID,20.1888,VALID,129,VALID,0.729688,
2012-02-22, 01:29:04,VALID,914.851,VALID,0,VALID,96.8098,VALID,0,VALID,20.1888,VALID,129,VALID,0.65625,
2012-02-22, 01:30:04,VALID,914.84,VALID,0,VALID,96.8021,VALID,0,VALID,20.1693,VALID,129,VALID,0.438281,
2012-02-22, 01:31:04,VALID,914.845,VALID,0,VALID,96.764,VALID,0,VALID,20.1303,VALID,129,VALID,0.535937,
2012-02-22, 01:32:04,VALID,914.836,VALID,0,VALID,96.7488,VALID,0.107441,VALID,20.1108,VALID,129,VALID,0.824219,
2012-02-22, 01:33:04,VALID,914.827,VALID,0,VALID,96.8403,VALID,0,VALID,20.0718,VALID,129,VALID,1.01484,
2012-02-22, 01:34:04,VALID,914.826,VALID,0,VALID,96.9012,VALID,0,VALID,20.0913,VALID,129,VALID,0.778516,
2012-02-22, 01:35:04,VALID,914.833,VALID,0,VALID,96.9165,VALID,0,VALID,20.1108,VALID,129,VALID,0.576172,
2012-02-22, 01:36:04,VALID,914.788,VALID,0,VALID,96.947,VALID,0,VALID,20.1108,VALID,129,VALID,0.548437,
2012-02-22, 01:37:04,VALID,914.777,VALID,0,VALID,96.9546,VALID,0,VALID,20.1108,VALID,129,VALID,0.558203,
2012-02-22, 01:38:04,VALID,914.73,VALID,0,VALID,96.9546,VALID,0,VALID,20.1303,VALID,129,VALID,0.684375,
2012-02-22, 01:39:04,VALID,914.718,VALID,0,VALID,97.0003,VALID,0,VALID,20.1693,VALID,129,VALID,0.720703,
2012-02-22, 01:40:04,VALID,914.7,VALID,0,VALID,97.0232,VALID,0,VALID,20.1693,VALID,129,VALID,0.708203,
2012-02-22, 01:41:04,VALID,914.682,VALID,0,VALID,97.0308,VALID,0,VALID,20.1693,VALID,129,VALID,0.605469,
2012-02-22, 01:42:04,VALID,914.627,VALID,0,VALID,97.0232,VALID,0,VALID,20.1888,VALID,129,VALID,0.547656,
2012-02-22, 01:43:04,VALID,914.63,VALID,0,VALID,97.0385,VALID,0,VALID,20.2083,VALID,130,VALID,0.705859,
2012-02-22, 01:44:04,VALID,914.618,VALID,0,VALID,97.0918,VALID,0,VALID,20.2278,VALID,151,VALID,0.746875,
2012-02-22, 01:45:04,VALID,914.614,VALID,0,VALID,97.0766,VALID,0,VALID,20.2278,VALID,159,VALID,1.09453,
2012-02-22, 01:46:04,VALID,914.573,VALID,0,VALID,97.069,VALID,0,VALID,20.2473,VALID,158,VALID,0.888672,
2012-02-22, 01:47:04,VALID,914.564,VALID,0,VALID,97.0461,VALID,0,VALID,20.2473,VALID,153,VALID,0.728125,
2012-02-22, 01:48:04,VALID,914.534,VALID,0,VALID,97.0766,VALID,0,VALID,20.2473,VALID,170,VALID,0.650391,
2012-02-22, 01:49:04,VALID,914.537,VALID,0,VALID,97.069,VALID,0,VALID,20.2473,VALID,166,VALID,1.26211,
2012-02-22, 01:50:04,VALID,914.536,VALID,0,VALID,97.0461,VALID,0,VALID,20.2083,VALID,154,VALID,0.865234,
2012-02-22, 01:51:04,VALID,914.531,VALID,0,VALID,97.069,VALID,0,VALID,20.2293,VALID,154,VALID,0.838281,
2012-02-22, 01:52:04,VALID,914.521,VALID,0,VALID,97.0994,VALID,0,VALID,20.2068,VALID,144,VALID,0.929297,
2012-02-22, 01:53:04,VALID,914.503,VALID,0,VALID,97.1147,VALID,0,VALID,20.2278,VALID,144,VALID,0.697266,
2012-02-22, 01:54:04,VALID,914.473,VALID,0,VALID,97.1071,VALID,0,VALID,20.2278,VALID,144,VALID,0.669141,
2012-02-22, 01:55:04,VALID,914.451,VALID,0,VALID,97.1452,VALID,0,VALID,20.2473,VALID,144,VALID,0.666406,
2012-02-22, 01:56:04,VALID,914.448,VALID,0,VALID,97.1452,VALID,0,VALID,20.2863,VALID,144,VALID,0.419922,
2012-02-22, 01:57:04,VALID,914.42,VALID,0,VALID,97.1299,VALID,0,VALID,20.2668,VALID,144,VALID,0.973047,
2012-02-22, 01:58:04,VALID,914.44,VALID,0,VALID,97.1452,VALID,0,VALID,20.2879,VALID,144,VALID,1.17031,
2012-02-22, 01:59:04,VALID,914.387,VALID,0,VALID,97.1681,VALID,0,VALID,20.3074,VALID,146,VALID,0.594531,
2012-02-22, 02:00:04,VALID,914.436,VALID,0,VALID,97.1604,VALID,0,VALID,20.2668,VALID,150,VALID,0.554297,
2012-02-22, 02:01:04,VALID,914.413,VALID,0,VALID,97.1452,VALID,0,VALID,20.2668,VALID,150,VALID,0.303906,
2012-02-22, 02:02:04,VALID,914.402,VALID,0,VALID,97.0918,VALID,0,VALID,20.2083,VALID,150,VALID,0.711328,
2012-02-22, 02:03:04,VALID,914.404,VALID,0,VALID,97.1223,VALID,0,VALID,20.2083,VALID,150,VALID,0.769141,
2012-02-22, 02:04:04,VALID,914.416,VALID,0,VALID,97.1223,VALID,0,VALID,20.1888,VALID,150,VALID,0.798047,
2012-02-22, 02:05:04,VALID,914.381,VALID,0,VALID,97.1452,VALID,0,VALID,20.1693,VALID,150,VALID,0.810547,
2012-02-22, 02:06:04,VALID,914.361,VALID,0,VALID,97.1452,VALID,0,VALID,20.1693,VALID,150,VALID,0.866406,
2012-02-22, 02:07:04,VALID,914.356,VALID,0,VALID,97.1604,VALID,0,VALID,20.1498,VALID,150,VALID,0.864062,
2012-02-22, 02:08:04,VALID,914.355,VALID,0,VALID,97.1909,VALID,0,VALID,20.1483,VALID,150,VALID,0.598047,
2012-02-22, 02:09:04,VALID,914.342,VALID,0,VALID,97.2062,VALID,0,VALID,20.1888,VALID,150,VALID,0.610937,
2012-02-22, 02:10:04,VALID,914.321,VALID,0,VALID,97.2214,VALID,0,VALID,20.2083,VALID,150,VALID,0.553906,
2012-02-22, 02:11:04,VALID,914.337,VALID,0,VALID,97.2062,VALID,0,VALID,20.2293,VALID,151,VALID,0.542578,
2012-02-22, 02:12:04,VALID,914.338,VALID,0,VALID,97.1833,VALID,0,VALID,20.2083,VALID,150,VALID,0.460547,
2012-02-22, 02:13:04,VALID,914.298,VALID,0,VALID,97.0918,VALID,0,VALID,20.1708,VALID,151,VALID,0.0167969,
2012-02-22, 02:14:04,VALID,914.308,VALID,0,VALID,97.0308,VALID,0,VALID,20.0913,VALID,150,VALID,0.412891,
2012-02-22, 02:15:04,VALID,914.319,VALID,0,VALID,97.008,VALID,0,VALID,20.0523,VALID,150,VALID,0.583594,
2012-02-22, 02:16:04,VALID,914.3,VALID,0,VALID,96.9698,VALID,0,VALID,19.9758,VALID,150,VALID,0.604688,
2012-02-22, 02:17:04,VALID,914.284,VALID,0,VALID,97.0461,VALID,0,VALID,19.9563,VALID,150,VALID,0.585156,
2012-02-22, 02:18:04,VALID,914.234,VALID,0,VALID,97.0766,VALID,0,VALID,19.9563,VALID,150,VALID,0.557813,
2012-02-22, 02:19:04,VALID,914.254,VALID,0,VALID,97.0994,VALID,0,VALID,19.9158,VALID,151,VALID,0.394922,
2012-02-22, 02:20:04,VALID,914.202,VALID,0,VALID,97.1681,VALID,0,VALID,19.9368,VALID,150,VALID,0.199609,
2012-02-22, 02:21:04,VALID,914.211,VALID,0,VALID,97.2214,VALID,0,VALID,19.9353,VALID,150,VALID,0.0785156,
2012-02-22, 02:22:04,VALID,914.187,VALID,0,VALID,97.2748,VALID,0,VALID,19.9938,VALID,150,VALID,0.446094,
2012-02-22, 02:23:04,VALID,914.172,VALID,0,VALID,97.3358,VALID,0,VALID,20.0328,VALID,150,VALID,0.388672,
2012-02-22, 02:24:04,VALID,914.193,VALID,0,VALID,97.2062,VALID,0,VALID,20.0343,VALID,151,VALID,0.410547,
2012-02-22, 02:25:04,VALID,914.144,VALID,0,VALID,97.1223,VALID,0,VALID,19.9548,VALID,150,VALID,0.589063,
2012-02-22, 02:26:04,VALID,914.121,VALID,0,VALID,97.0308,VALID,0,VALID,19.8978,VALID,150,VALID,0.563281,
2012-02-22, 02:27:04,VALID,914.117,VALID,0,VALID,97.0308,VALID,0,VALID,19.7988,VALID,150,VALID,0.733594,
2012-02-22, 02:28:04,VALID,914.098,VALID,0,VALID,97.1071,VALID,0,VALID,19.7793,VALID,151,VALID,0.519141,
2012-02-22, 02:29:04,VALID,914.06,VALID,0,VALID,97.2062,VALID,0,VALID,19.8198,VALID,150,VALID,0.526172,
2012-02-22, 02:30:04,VALID,914.027,VALID,0,VALID,97.1833,VALID,0,VALID,19.8003,VALID,151,VALID,0.539844,
2012-02-22, 02:31:04,VALID,914.001,VALID,0,VALID,97.1986,VALID,0,VALID,19.7598,VALID,150,VALID,0.269531,
2012-02-22, 02:32:04,VALID,913.967,VALID,0,VALID,97.2367,VALID,0,VALID,19.7403,VALID,150,VALID,0,
2012-02-22, 02:33:04,VALID,913.97,VALID,0,VALID,97.2214,VALID,0,VALID,19.7403,VALID,150,VALID,0,
2012-02-22, 02:34:04,VALID,913.935,VALID,0,VALID,97.2062,VALID,0,VALID,19.7418,VALID,151,VALID,0.115625,
2012-02-22, 02:35:04,VALID,913.924,VALID,0,VALID,97.2062,VALID,0,VALID,19.7028,VALID,150,VALID,0.166797,
2012-02-22, 02:36:04,VALID,913.932,VALID,0,VALID,97.2138,VALID,0,VALID,19.7028,VALID,150,VALID,0,
2012-02-22, 02:37:04,VALID,913.975,VALID,0,VALID,97.2138,VALID,0,VALID,19.7028,VALID,150,VALID,0,
2012-02-22, 02:38:04,VALID,913.959,VALID,0,VALID,97.2595,VALID,0,VALID,19.7013,VALID,150,VALID,0,
2012-02-22, 02:39:04,VALID,913.952,VALID,0,VALID,97.2977,VALID,0,VALID,19.7418,VALID,150,VALID,0,
2012-02-22, 02:40:04,VALID,913.975,VALID,0,VALID,97.3586,VALID,0,VALID,19.8198,VALID,151,VALID,0.327734,
2012-02-22, 02:41:04,VALID,913.931,VALID,0,VALID,97.351,VALID,0,VALID,19.8978,VALID,150,VALID,0.396094,
2012-02-22, 02:42:04,VALID,913.927,VALID,0,VALID,97.3663,VALID,0,VALID,19.9563,VALID,150,VALID,0.403125,
2012-02-22, 02:43:04,VALID,913.927,VALID,0,VALID,97.3815,VALID,0,VALID,20.0148,VALID,150,VALID,0.536328,
2012-02-22, 02:44:04,VALID,913.909,VALID,0,VALID,97.3891,VALID,0,VALID,20.0343,VALID,150,VALID,0.707031,
2012-02-22, 02:45:04,VALID,913.911,VALID,0,VALID,97.3129,VALID,0,VALID,19.9548,VALID,150,VALID,0.439453,
2012-02-22, 02:46:04,VALID,913.915,VALID,0,VALID,97.1986,VALID,0,VALID,19.9173,VALID,150,VALID,0.586719,
2012-02-22, 02:47:04,VALID,913.927,VALID,0,VALID,97.2443,VALID,0,VALID,19.8783,VALID,150,VALID,0.851563,
2012-02-22, 02:48:04,VALID,913.936,VALID,0,VALID,97.2672,VALID,0,VALID,19.8588,VALID,150,VALID,0.877734,
2012-02-22, 02:49:04,VALID,913.939,VALID,0,VALID,97.29,VALID,0,VALID,19.8588,VALID,150,VALID,0.966016,
2012-02-22, 02:50:04,VALID,913.963,VALID,0,VALID,97.29,VALID,0,VALID,19.8588,VALID,150,VALID,1.1043,
2012-02-22, 02:51:04,VALID,913.991,VALID,0,VALID,97.2595,VALID,0,VALID,19.8198,VALID,150,VALID,0.832812,
2012-02-22, 02:52:04,VALID,913.989,VALID,0,VALID,97.2748,VALID,0,VALID,19.7598,VALID,150,VALID,1.02188,
2012-02-22, 02:53:04,VALID,913.947,VALID,0,VALID,97.2748,VALID,0,VALID,19.7613,VALID,150,VALID,0.930859,
2012-02-22, 02:54:04,VALID,913.921,VALID,0,VALID,97.2748,VALID,0,VALID,19.7223,VALID,151,VALID,1.02852,
2012-02-22, 02:55:04,VALID,913.918,VALID,0,VALID,97.3129,VALID,0,VALID,19.7223,VALID,150,VALID,1.03125,
2012-02-22, 02:56:04,VALID,913.86,VALID,0,VALID,97.3663,VALID,0,VALID,19.7403,VALID,150,VALID,0.919141,
2012-02-22, 02:57:04,VALID,913.83,VALID,0,VALID,97.351,VALID,0,VALID,19.7418,VALID,150,VALID,0.639063,
2012-02-22, 02:58:04,VALID,913.795,VALID,0,VALID,97.3739,VALID,0,VALID,19.7628,VALID,150,VALID,0.970703,
2012-02-22, 02:59:04,VALID,913.761,VALID,0,VALID,97.3434,VALID,0,VALID,19.7208,VALID,150,VALID,0.772656,
2012-02-22, 03:00:04,VALID,913.765,VALID,0,VALID,97.3205,VALID,0.107441,VALID,19.7013,VALID,150,VALID,0.450781,
2012-02-22, 03:01:04,VALID,913.764,VALID,0,VALID,97.3281,VALID,0,VALID,19.6428,VALID,150,VALID,0.814062,
2012-02-22, 03:02:04,VALID,913.75,VALID,0,VALID,97.412,VALID,0,VALID,19.6818,VALID,150,VALID,0.91875,
2012-02-22, 03:03:04,VALID,913.729,VALID,0,VALID,97.4196,VALID,0,VALID,19.7418,VALID,150,VALID,0.657031,
2012-02-22, 03:04:04,VALID,913.733,VALID,0,VALID,97.3815,VALID,0,VALID,19.6818,VALID,150,VALID,0.572266,
2012-02-22, 03:05:04,VALID,913.706,VALID,0,VALID,97.4044,VALID,0,VALID,19.7223,VALID,150,VALID,0.61875,
2012-02-22, 03:06:04,VALID,913.698,VALID,0,VALID,97.3891,VALID,0,VALID,19.6818,VALID,150,VALID,0.520312,
2012-02-22, 03:07:04,VALID,913.696,VALID,0,VALID,97.3891,VALID,0,VALID,19.6623,VALID,150,VALID,0.520703,
2012-02-22, 03:08:04,VALID,913.681,VALID,0,VALID,97.3434,VALID,0,VALID,19.6428,VALID,150,VALID,0.609375,
2012-02-22, 03:09:04,VALID,913.672,VALID,0,VALID,97.3129,VALID,0,VALID,19.5843,VALID,150,VALID,0.623047,
2012-02-22, 03:10:04,VALID,913.68,VALID,0,VALID,97.3129,VALID,0,VALID,19.5453,VALID,150,VALID,0.680469,
2012-02-22, 03:11:04,VALID,913.672,VALID,0,VALID,97.3205,VALID,0,VALID,19.5063,VALID,150,VALID,0.732813,
2012-02-22, 03:12:04,VALID,913.622,VALID,0,VALID,97.3586,VALID,0.107441,VALID,19.5273,VALID,150,VALID,0.805469,
2012-02-22, 03:13:04,VALID,913.621,VALID,0,VALID,97.3358,VALID,0,VALID,19.4688,VALID,150,VALID,0.598828,
2012-02-22, 03:14:04,VALID,913.628,VALID,0,VALID,97.4196,VALID,0.107441,VALID,19.4868,VALID,150,VALID,0.713281,
2012-02-22, 03:15:04,VALID,913.606,VALID,0,VALID,97.4349,VALID,0.107441,VALID,19.4883,VALID,150,VALID,0.683203,
2012-02-22, 03:16:04,VALID,913.586,VALID,0,VALID,97.4806,VALID,0,VALID,19.5273,VALID,150,VALID,0.705859,
2012-02-22, 03:17:04,VALID,913.587,VALID,0,VALID,97.4806,VALID,0,VALID,19.5258,VALID,150,VALID,0.608984,
2012-02-22, 03:18:04,VALID,913.547,VALID,0,VALID,97.4806,VALID,0,VALID,19.5453,VALID,150,VALID,0.527734,
2012-02-22, 03:19:04,VALID,913.56,VALID,0,VALID,97.4654,VALID,0,VALID,19.5468,VALID,150,VALID,0.640234,
2012-02-22, 03:20:04,VALID,913.597,VALID,0,VALID,97.4806,VALID,0.107441,VALID,19.5453,VALID,150,VALID,0.438281,
2012-02-22, 03:21:04,VALID,913.587,VALID,0,VALID,97.4654,VALID,0,VALID,19.5468,VALID,150,VALID,0.485547,
2012-02-22, 03:22:04,VALID,913.591,VALID,0,VALID,97.473,VALID,0,VALID,19.5468,VALID,150,VALID,0.453516,
2012-02-22, 03:23:04,VALID,913.591,VALID,0,VALID,97.4882,VALID,0,VALID,19.5273,VALID,150,VALID,0.346484,
2012-02-22, 03:24:04,VALID,913.565,VALID,0,VALID,97.4654,VALID,0,VALID,19.5258,VALID,150,VALID,0.397266,
2012-02-22, 03:25:04,VALID,913.608,VALID,0,VALID,97.4806,VALID,0,VALID,19.5078,VALID,150,VALID,0.597656,
2012-02-22, 03:26:04,VALID,913.573,VALID,0,VALID,97.4806,VALID,0,VALID,19.5273,VALID,151,VALID,0.714063,
2012-02-22, 03:27:04,VALID,913.58,VALID,0,VALID,97.4959,VALID,0,VALID,19.5468,VALID,151,VALID,0.877734,
2012-02-22, 03:28:04,VALID,913.552,VALID,0,VALID,97.5035,VALID,0,VALID,19.5468,VALID,152,VALID,0.848437,
2012-02-22, 03:29:04,VALID,913.539,VALID,0,VALID,97.4806,VALID,0,VALID,19.5468,VALID,152,VALID,1.03516,
2012-02-22, 03:30:04,VALID,913.538,VALID,0,VALID,97.4806,VALID,0,VALID,19.5258,VALID,152,VALID,0.508594,
2012-02-22, 03:31:04,VALID,913.544,VALID,0,VALID,97.5111,VALID,0,VALID,19.5063,VALID,152,VALID,0.760547,
2012-02-22, 03:32:04,VALID,913.503,VALID,0,VALID,97.4882,VALID,0,VALID,19.5063,VALID,152,VALID,0.658594,
2012-02-22, 03:33:04,VALID,913.495,VALID,0,VALID,97.4882,VALID,0,VALID,19.5273,VALID,152,VALID,0.614453,
2012-02-22, 03:34:04,VALID,913.52,VALID,0,VALID,97.4882,VALID,0,VALID,19.5273,VALID,153,VALID,1.07773,
2012-02-22, 03:35:04,VALID,913.504,VALID,0,VALID,97.5111,VALID,0,VALID,19.5468,VALID,153,VALID,0.970703,
2012-02-22, 03:36:04,VALID,913.51,VALID,0,VALID,97.5111,VALID,0,VALID,19.5663,VALID,161,VALID,1.20078,
2012-02-22, 03:37:04,VALID,913.521,VALID,0,VALID,97.5035,VALID,0,VALID,19.5453,VALID,165,VALID,0.892187,
2012-02-22, 03:38:04,VALID,913.494,VALID,0,VALID,97.5035,VALID,0,VALID,19.5453,VALID,163,VALID,0.654688,
2012-02-22, 03:39:04,VALID,913.476,VALID,0,VALID,97.4959,VALID,0,VALID,19.5468,VALID,163,VALID,0.515234,
2012-02-22, 03:40:04,VALID,913.488,VALID,0,VALID,97.4806,VALID,0,VALID,19.4493,VALID,163,VALID,0.538281,
2012-02-22, 03:41:04,VALID,913.464,VALID,0,VALID,97.4959,VALID,0,VALID,19.4283,VALID,163,VALID,0.847266,
2012-02-22, 03:42:04,VALID,913.482,VALID,0,VALID,97.4882,VALID,0,VALID,19.4103,VALID,163,VALID,0.896484,
2012-02-22, 03:43:04,VALID,913.443,VALID,0,VALID,97.4806,VALID,0,VALID,19.3698,VALID,163,VALID,0.619141,
2012-02-22, 03:44:04,VALID,913.467,VALID,0,VALID,97.5187,VALID,0,VALID,19.3908,VALID,163,VALID,0.687109,